TEVEL2-8

Last updated on Mon Nov 03 2025 00:03:22 GMT+0000 (Coordinated Universal Time)

1 63239U 25052AF 25306.44159470 .00016043 00000+0 68138-3 0 9999 2 63239 97.4168 198.1611 0005594 210.9048 149.1861 15.23135099 35404
UTC large
Height (km)
Speed (km/s)
/
Latitude / Longitude
Inclination (degrees)
Orbital Period (minutes)
Azimuth
Elevation
Range (km)
Doppler Factor

Next 0 passes for location: London (51.5072 / 0.1276)

Sorry there are no passes over London.